Kenai, AK

9:28 AM AKDT on May 23, 2017 (GMT -0800)
Kenai Municipal

Weather History for PAEN - November, 2010

Change the Weather History Date:

Wednesday, November 3, 2010

  Actual Average Record
Temperature  
Mean Temperature 39 °F -  
Max Temperature 43 °F 34 °F 104 °F (2003)
Min Temperature 35 °F 19 °F -9 °F (1975)
Degree Days  
Heating Degree Days 26    
Moisture  
Dew Point 32 °F    
Average Humidity 80    
Maximum Humidity 93    
Minimum Humidity 53    
Precipitation  
Precipitation 0.23 in - - ()
Sea Level Pressure  
Sea Level Pressure 29.35 in    
Wind  
Wind Speed 13 mph (North)    
Max Wind Speed 31 mph    
Max Gust Speed 43 mph    
Visibility 8 miles    
Events Rain , Snow    
Averages and records for this station are not official NWS values.
T = Trace of Precipitation, MM = Missing Value Source: NWS Daily Summary

Daily Weather History Graph

Daily Weather History Graph

Search for Another Location

Airport or City:

Trip Planner

Search our weather history database for the weather conditions in past years. The results will help you decide how hot, cold, wet, or windy it might be!

Date:

Astronomy

Nov. 03, 2010 Rise Set
Actual Time 9:35 AM AKDT 6:00 PM AKDT
Civil Twilight 8:48 AM AKDT 6:47 PM AKDT
Nautical Twilight 7:58 AM AKDT 7:37 PM AKDT
Astronomical Twilight 7:09 AM AKDT 8:26 PM AKDT
Moon 6:15 AM AKDT (11/3) 4:38 PM AKDT (11/3)
Length of Visible Light 9h 58m
Length of Day
8h 24m
Waning Crescent, 8% of the Moon is Illuminated
Nov 3
Waning Crescent
Nov 5
New
Nov 13
First Quarter
Nov 21
Full
Nov 28
Last Quarter

Hourly Weather History & Observations

Time (AKDT) Temp. Windchill Dew Point Humidity Pressure Visibility Wind Dir Wind Speed Gust Speed Precip Events Conditions
12:06 AM 37.4 °F 32.8 °F 32.0 °F 81% 29.91 in 10.0 mi East 5.8 mph - 0.00 in Rain Light Rain
12:31 AM 37.4 °F 34.9 °F 32.0 °F 81% 29.91 in 10.0 mi NNE 3.5 mph - 0.01 in   Overcast
12:53 AM 37.0 °F 34.5 °F 33.1 °F 86% 29.92 in 10.0 mi WNW 3.5 mph - 0.01 in Rain Light Rain
1:16 AM 37.4 °F 33.8 °F 33.8 °F 87% 29.91 in 9.0 mi NNW 4.6 mph - 0.02 in Rain Rain
1:37 AM 37.4 °F 33.8 °F 33.8 °F 87% 29.91 in 8.0 mi North 4.6 mph - 0.04 in Rain Rain
1:53 AM 37.0 °F 34.5 °F 33.1 °F 86% 29.92 in 9.0 mi NNW 3.5 mph - 0.07 in Rain Light Rain
2:14 AM 37.4 °F 32.1 °F 32.0 °F 81% 29.89 in 10.0 mi NNW 6.9 mph - 0.00 in   Overcast
2:23 AM 37.4 °F 32.1 °F 32.0 °F 81% 29.89 in 10.0 mi NNW 6.9 mph - 0.00 in   Mostly Cloudy
2:53 AM 36.0 °F 30.3 °F 32.0 °F 86% 29.89 in 10.0 mi NNW 6.9 mph - 0.00 in   Mostly Cloudy
3:53 AM 37.0 °F 30.4 °F 33.1 °F 86% 29.86 in 10.0 mi North 9.2 mph - N/A   Overcast
4:51 AM 37.4 °F 31.4 °F 33.8 °F 87% 29.82 in 10.0 mi North 8.1 mph - 0.01 in Rain Light Rain
4:53 AM 37.9 °F 31.5 °F 34.0 °F 86% 29.82 in 10.0 mi North 9.2 mph - 0.01 in Rain Light Rain
5:16 AM 37.4 °F 30.8 °F 33.8 °F 87% 29.80 in 10.0 mi NNE 9.2 mph - 0.00 in   Overcast
5:53 AM 37.9 °F 30.9 °F 34.0 °F 86% 29.78 in 10.0 mi North 10.4 mph - 0.00 in   Overcast
6:53 AM 37.9 °F 30.5 °F 34.0 °F 86% 29.74 in 10.0 mi North 11.5 mph - N/A   Overcast
7:46 AM 39.2 °F 30.2 °F 33.8 °F 81% 29.70 in 10.0 mi NNE 17.3 mph - 0.00 in Rain Light Rain
7:53 AM 39.0 °F 29.6 °F 34.0 °F 82% 29.70 in 10.0 mi North 18.4 mph - 0.01 in Rain Light Rain
8:24 AM 37.4 °F 26.6 °F 33.8 °F 87% 29.67 in 10.0 mi North 21.9 mph 27.6 mph 0.00 in   Overcast
8:53 AM 37.9 °F 28.2 °F 32.0 °F 79% 29.66 in 10.0 mi NNE 18.4 mph 25.3 mph 0.00 in   Overcast
9:53 AM 37.9 °F 28.5 °F 32.0 °F 79% 29.62 in 10.0 mi NNE 17.3 mph 23.0 mph N/A   Mostly Cloudy
10:53 AM 37.9 °F 28.5 °F 30.9 °F 76% 29.57 in 10.0 mi NNE 17.3 mph 26.5 mph N/A   Clear
11:53 AM 39.0 °F 29.9 °F 30.9 °F 73% 29.50 in 10.0 mi NNE 17.3 mph 26.5 mph N/A   Mostly Cloudy
12:53 PM 39.9 °F 30.0 °F 30.0 °F 68% 29.42 in 10.0 mi North 21.9 mph 28.8 mph N/A   Scattered Clouds
1:53 PM 41.0 °F 31.4 °F 28.9 °F 62% 29.36 in 10.0 mi North 21.9 mph 28.8 mph N/A   Overcast
2:04 PM 39.2 °F 29.8 °F 28.4 °F 65% 29.35 in 10.0 mi North 18.4 mph 31.1 mph N/A   Overcast
2:53 PM 41.0 °F 31.1 °F 28.0 °F 60% 29.28 in 10.0 mi North 23.0 mph 31.1 mph N/A   Overcast
3:38 PM 41.0 °F 32.5 °F 28.4 °F 61% 29.20 in 10.0 mi North 17.3 mph 28.8 mph N/A   Mostly Cloudy
3:53 PM 41.0 °F 32.8 °F 28.0 °F 60% 29.18 in 10.0 mi North 16.1 mph 27.6 mph N/A   Mostly Cloudy
4:53 PM 43.0 °F 34.2 °F 27.0 °F 53% 29.07 in 10.0 mi North 20.7 mph 34.5 mph N/A   Scattered Clouds
5:53 PM 42.1 °F 31.1 °F 26.1 °F 53% 28.96 in 10.0 mi North 31.1 mph 42.6 mph N/A   Overcast
6:20 PM 42.8 °F 32.9 °F 28.4 °F 57% 28.92 in 10.0 mi North 26.5 mph 36.8 mph 0.00 in Rain Light Rain
6:53 PM 39.0 °F 28.5 °F 32.0 °F 76% 28.90 in 8.0 mi North 23.0 mph 38.0 mph 0.01 in   Overcast
7:00 PM 39.2 °F 27.8 °F 32.0 °F 75% 28.89 in 7.0 mi North 27.6 mph 38.0 mph 0.01 in   Overcast
7:53 PM 36.0 °F 24.2 °F 32.0 °F 86% 28.85 in 3.0 mi North 24.2 mph 32.2 mph 0.05 in Snow Light Snow
8:00 PM 35.6 °F 24.2 °F 32.0 °F 87% 28.83 in 2.5 mi North 21.9 mph 28.8 mph 0.01 in Snow Light Snow
8:13 PM 35.6 °F 24.5 °F 33.8 °F 93% 28.83 in 3.0 mi North 20.7 mph 29.9 mph 0.02 in Snow Light Snow
8:21 PM 35.6 °F 24.8 °F 33.8 °F 93% 28.82 in 2.5 mi North 19.6 mph 29.9 mph 0.03 in Snow Light Snow
8:35 PM 35.6 °F 24.0 °F 33.8 °F 93% 28.81 in 1.2 mi North 23.0 mph 31.1 mph 0.04 in Snow Light Snow
8:53 PM 36.0 °F 23.9 °F 32.0 °F 86% 28.81 in 1.5 mi North 25.3 mph 38.0 mph 0.06 in Snow Light Snow
9:22 PM 35.6 °F 23.4 °F 33.8 °F 93% 28.78 in 2.0 mi North 25.3 mph 32.2 mph 0.01 in Snow Light Snow
9:26 PM 35.6 °F 22.7 °F 33.8 °F 93% 28.77 in 3.0 mi North 28.8 mph 36.8 mph 0.01 in Snow Light Snow
9:35 PM 35.6 °F 23.4 °F 33.8 °F 93% 28.77 in 8.0 mi North 25.3 mph 36.8 mph 0.01 in Snow Light Snow
9:53 PM 37.0 °F 24.9 °F 33.1 °F 86% 28.76 in 7.0 mi North 27.6 mph 39.1 mph 0.01 in Snow Light Snow
10:53 PM 37.9 °F 26.8 °F 34.0 °F 86% 28.71 in 10.0 mi North 24.2 mph 34.5 mph 0.00 in   Overcast
11:03 PM 39.2 °F 28.5 °F 33.8 °F 81% 28.70 in 10.0 mi North 24.2 mph 33.4 mph N/A   Overcast
11:53 PM 39.0 °F 29.9 °F 33.1 °F 79% 28.70 in 10.0 mi North 17.3 mph 28.8 mph N/A   Clear